| time (UTC) | temp F | wind direction | speed MPH | gust MPH | rain 1hr in | rain 24hr in | rain mn in | humidity % | barometer mb |
| 20260510192121 | 67 | 180 | 0.0 | 1.0 | 0.00 | 0.76 | 0.00 | 70 | 1028.9 |
| 20260510191123 | 68 | 180 | 0.0 | 0.0 | 0.00 | 0.80 | 0.00 | 66 | 1029.0 |
| 20260510190123 | 71 | 180 | 0.0 | 0.0 | 0.00 | 0.88 | 0.00 | 63 | 1029.0 |
| 20260510184123 | 71 | 180 | 0.0 | 1.0 | 0.00 | 1.06 | 0.00 | 65 | 1029.0 |
| 20260510183123 | 70 | 180 | 0.0 | 2.0 | 0.00 | 1.17 | 0.00 | 69 | 1028.9 |
| 20260510182123 | 68 | 180 | 0.0 | 2.0 | 0.00 | 1.23 | 0.00 | 70 | 1029.1 |
| 20260510181121 | 66 | 180 | 0.0 | 1.0 | 0.00 | 1.26 | 0.00 | 73 | 1029.1 |
| 20260510180122 | 65 | 180 | 0.0 | 0.0 | 0.00 | 1.26 | 0.00 | 76 | 1029.4 |
| 20260510175124 | 63 | 180 | 0.0 | 0.0 | 0.00 | 1.26 | 0.00 | 78 | 1029.4 |
| 20260510174123 | 64 | 180 | 0.0 | 0.0 | 0.00 | 1.26 | 0.00 | 76 | 1029.4 |
| 20260510173223 | 68 | 180 | 1.0 | 2.0 | 0.00 | 1.26 | 0.00 | 73 | 1029.2 |
| 20260510172222 | 69 | 180 | 0.0 | 3.0 | 0.00 | 1.26 | 0.00 | 75 | 1029.0 |
| 20260510171222 | 66 | 180 | 0.0 | 0.0 | 0.00 | 1.26 | 0.00 | 79 | 1029.1 |
| 20260510165224 | 65 | 337 | 0.0 | 0.0 | 0.00 | 1.26 | 0.00 | 85 | 1029.3 |
| 20260510164224 | 64 | 337 | 0.0 | 1.0 | 0.00 | 1.26 | 0.00 | 86 | 1029.4 |
| 20260510163222 | 64 | 337 | 0.0 | 0.0 | 0.00 | 1.26 | 0.00 | 87 | 1029.5 |
| 20260510162223 | 64 | 337 | 0.0 | 0.0 | 0.00 | 1.26 | 0.00 | 89 | 1029.6 |
| 20260510160222 | 60 | 315 | 1.0 | 2.0 | 0.00 | 1.26 | 0.00 | 90 | 1029.7 |
| 20260510155322 | 60 | 315 | 1.0 | 2.0 | 0.00 | 1.26 | 0.00 | 90 | 1029.7 |
| 20260510154322 | 63 | 337 | 0.0 | 1.0 | 0.00 | 1.26 | 0.00 | 92 | 1029.9 |
| 20260510153322 | 62 | 337 | 0.0 | 0.0 | 0.00 | 1.26 | 0.00 | 92 | 1030.0 |
| 20260510152323 | 61 | 337 | 0.0 | 0.0 | 0.00 | 1.26 | 0.00 | 92 | 1030.1 |
| 20260510151322 | 61 | 337 | 0.0 | 1.0 | 0.00 | 1.26 | 0.00 | 93 | 1030.1 |
| 20260510145324 | 62 | 337 | 0.0 | 0.0 | 0.00 | 1.26 | 0.00 | 94 | 1030.0 |
| 20260510143425 | 61 | 315 | 0.0 | 0.0 | 0.00 | 1.26 | 0.00 | 94 | 1029.6 |
| 20260510142421 | 61 | 315 | 0.0 | 0.0 | 0.00 | 1.26 | 0.00 | 94 | 1029.5 |
| 20260510141422 | 60 | 315 | 0.0 | 0.0 | 0.00 | 1.26 | 0.00 | 94 | 1029.6 |
| 20260510140424 | 60 | 315 | 0.0 | 0.0 | 0.00 | 1.26 | 0.00 | 94 | 1029.6 |
| 20260510135424 | 60 | 315 | 0.0 | 0.0 | 0.00 | 1.26 | 0.00 | 94 | 1029.4 |
| 20260510134422 | 60 | 315 | 0.0 | 0.0 | 0.00 | 1.26 | 0.00 | 94 | 1029.4 |
| 20260510133423 | 59 | 315 | 0.0 | 0.0 | 0.00 | 1.26 | 0.00 | 94 | 1029.4 |
| 20260510131523 | 59 | 315 | 0.0 | 0.0 | 0.00 | 1.26 | 0.00 | 94 | 1029.2 |
| 20260510130621 | 59 | 315 | 0.0 | 0.0 | 0.00 | 1.26 | 0.00 | 95 | 1029.2 |
| 20260510125621 | 58 | 315 | 0.0 | 0.0 | 0.00 | 1.26 | 0.00 | 95 | 1029.1 |
| 20260510124721 | 58 | 315 | 0.0 | 0.0 | 0.00 | 1.26 | 0.00 | 95 | 1029.1 |
| 20260510123723 | 57 | 67 | 0.0 | 0.0 | 0.00 | 1.26 | 0.00 | 95 | 1028.9 |
| 20260510121823 | 57 | 67 | 1.0 | 2.0 | 0.00 | 1.26 | 0.00 | 95 | 1028.5 |
| 20260510120922 | 56 | 180 | 0.0 | 0.0 | 0.00 | 1.26 | 0.00 | 95 | 1028.8 |
| 20260510115922 | 56 | 137 | 0.0 | 3.0 | 0.00 | 1.26 | 0.00 | 95 | 1028.6 |
| 20260510114923 | 56 | 90 | 1.0 | 2.0 | 0.00 | 1.26 | 0.00 | 95 | 1028.5 |
| 20260510114021 | 56 | 90 | 0.0 | 1.0 | 0.00 | 1.26 | 0.00 | 95 | 1028.4 |
| 20260510113022 | 55 | 67 | 0.0 | 0.0 | 0.00 | 1.26 | 0.00 | 95 | 1028.5 |
| 20260510112026 | 55 | 67 | 0.0 | 0.0 | 0.00 | 1.26 | 0.00 | 95 | 1028.5 |
| 20260510110122 | 55 | 180 | 0.0 | 0.0 | 0.00 | 1.26 | 0.00 | 95 | 1028.5 |
| 20260510104123 | 55 | 67 | 0.0 | 0.0 | 0.00 | 1.26 | 0.00 | 95 | 1028.4 |
| 20260510103121 | 55 | 337 | 0.0 | 0.0 | 0.00 | 1.26 | 0.00 | 95 | 1028.6 |
| 20260510101224 | 55 | 337 | 1.0 | 2.0 | 0.00 | 1.26 | 0.00 | 95 | 1028.6 |
| 20260510100222 | 54 | 315 | 0.0 | 1.0 | 0.00 | 1.26 | 0.00 | 95 | 1028.6 |
| 20260510095225 | 55 | 337 | 1.0 | 2.0 | 0.00 | 1.26 | 0.00 | 94 | 1028.8 |
| 20260510094221 | 55 | 337 | 2.0 | 2.0 | 0.00 | 1.26 | 0.00 | 94 | 1028.9 |
| 20260510093223 | 55 | 308 | 1.0 | 3.0 | 0.00 | 1.26 | 0.00 | 94 | 1028.7 |
| 20260510092224 | 55 | 329 | 1.0 | 3.0 | 0.00 | 1.26 | 0.00 | 94 | 1028.5 |
| 20260510091221 | 55 | 317 | 0.0 | 2.0 | 0.00 | 1.26 | 0.00 | 94 | 1028.5 |
| 20260510085322 | 55 | 180 | 0.0 | 0.0 | 0.00 | 1.26 | 0.00 | 94 | 1027.7 |
| 20260510084322 | 55 | 180 | 0.0 | 0.0 | 0.00 | 1.26 | 0.00 | 94 | 1027.8 |
| 20260510083321 | 55 | 180 | 0.0 | 0.0 | 0.00 | 1.26 | 0.00 | 94 | 1028.0 |
| 20260510082321 | 55 | 180 | 0.0 | 0.0 | 0.00 | 1.26 | 0.00 | 94 | 1027.9 |
| 20260510081323 | 55 | 180 | 0.0 | 0.0 | 0.00 | 1.26 | 0.00 | 94 | 1027.7 |
| 20260510080323 | 55 | 180 | 0.0 | 0.0 | 0.00 | 1.26 | 0.00 | 94 | 1027.7 |
| 20260510075323 | 55 | 180 | 0.0 | 0.0 | 0.00 | 1.26 | 0.00 | 94 | 1027.7 |
| 20260510074323 | 56 | 180 | 0.0 | 0.0 | 0.00 | 1.26 | 0.00 | 94 | 1027.9 |
| 20260510073322 | 56 | 180 | 0.0 | 0.0 | 0.00 | 1.26 | 0.00 | 84 | 1027.9 |
| 20260510072322 | 55 | 180 | 0.0 | 0.0 | 0.00 | 1.26 | 0.00 | 75 | 1027.9 |
| 20260510071323 | 56 | 180 | 0.0 | 0.0 | 0.00 | 1.26 | 0.00 | 94 | 1027.6 |
| 20260510070323 | 56 | 180 | 0.0 | 0.0 | 0.00 | 1.26 | 0.00 | 94 | 1027.4 |
| 20260510065324 | 56 | 180 | 0.0 | 0.0 | 0.00 | 1.26 | 0.00 | 94 | 1027.3 |
| 20260510064324 | 56 | 180 | 0.0 | 0.0 | 0.00 | 1.26 | 0.00 | 94 | 1027.4 |
| 20260510063323 | 56 | 180 | 0.0 | 0.0 | 0.00 | 1.26 | 0.00 | 94 | 1027.4 |
| 20260510063224 | 56 | 180 | 0.0 | 0.0 | 0.00 | 1.26 | 0.00 | 94 | 1027.4 |
| 20260510062223 | 56 | 180 | 0.0 | 0.0 | 0.00 | 1.26 | 0.00 | 94 | 1027.4 |
| 20260510061222 | 56 | 180 | 0.0 | 0.0 | 0.00 | 1.26 | 0.00 | 94 | 1027.4 |
| 20260510060222 | 56 | 180 | 0.0 | 0.0 | 0.00 | 1.26 | 0.00 | 94 | 1027.4 |
| 20260510060121 | 56 | 180 | 0.0 | 0.0 | 0.00 | 1.26 | 0.00 | 94 | 1027.3 |
| 20260510055122 | 56 | 180 | 0.0 | 0.0 | 0.00 | 1.26 | 0.00 | 94 | 1027.4 |
| 20260510053224 | 56 | 180 | 0.0 | 0.0 | 0.00 | 1.26 | 0.00 | 94 | 1027.6 |
| 20260510052322 | 56 | 180 | 0.0 | 0.0 | 0.00 | 1.26 | 0.00 | 94 | 1027.6 |
| 20260510045323 | 56 | 180 | 0.0 | 0.0 | 0.00 | 1.26 | 0.00 | 93 | 1027.8 |
| 20260510044323 | 56 | 180 | 0.0 | 0.0 | 0.00 | 1.26 | 0.00 | 93 | 1027.7 |
| 20260510043422 | 55 | 180 | 0.0 | 0.0 | 0.00 | 1.26 | 0.00 | 93 | 1027.7 |
| 20260510042421 | 55 | 180 | 0.0 | 0.0 | 0.00 | 1.26 | 0.00 | 93 | 1027.7 |
| 20260510041423 | 55 | 180 | 0.0 | 0.0 | 0.00 | 1.26 | 0.00 | 93 | 1027.6 |
| 20260510040421 | 55 | 180 | 0.0 | 0.0 | 0.00 | 1.26 | 0.00 | 93 | 1027.3 |
| 20260510035425 | 55 | 180 | 0.0 | 0.0 | 0.00 | 1.26 | 1.26 | 93 | 1027.1 |
| 20260510035326 | 55 | 180 | 0.0 | 0.0 | 0.00 | 1.26 | 1.26 | 94 | 1027.2 |
| 20260510034324 | 55 | 180 | 0.0 | 0.0 | 0.00 | 1.26 | 1.26 | 93 | 1027.3 |
| 20260510033424 | 55 | 180 | 0.0 | 0.0 | 0.00 | 1.26 | 1.26 | 93 | 1027.3 |
| 20260510032425 | 55 | 180 | 0.0 | 0.0 | 0.00 | 1.26 | 1.26 | 93 | 1027.2 |
| 20260510031524 | 55 | 180 | 0.0 | 0.0 | 0.00 | 1.26 | 1.26 | 93 | 1027.3 |
| 20260510030526 | 55 | 180 | 0.0 | 0.0 | 0.00 | 1.26 | 1.26 | 93 | 1027.4 |
| 20260510025525 | 55 | 180 | 0.0 | 0.0 | 0.00 | 1.26 | 1.26 | 93 | 1027.4 |
| 20260510024624 | 55 | 180 | 0.0 | 0.0 | 0.00 | 1.26 | 1.26 | 93 | 1027.4 |
| 20260510023626 | 55 | 180 | 0.0 | 0.0 | 0.00 | 1.26 | 1.26 | 93 | 1027.3 |
| 20260510022626 | 55 | 337 | 0.0 | 0.0 | 0.00 | 1.26 | 1.26 | 93 | 1027.4 |
| 20260510021625 | 55 | 337 | 0.0 | 0.0 | 0.00 | 1.26 | 1.26 | 93 | 1027.3 |
| 20260510020626 | 55 | 337 | 0.0 | 0.0 | 0.00 | 1.26 | 1.26 | 93 | 1027.3 |
| 20260510014725 | 55 | 135 | 0.0 | 0.0 | 0.00 | 1.26 | 1.26 | 93 | 1027.2 |
| 20260510013725 | 54 | 112 | 0.0 | 0.0 | 0.00 | 1.26 | 1.26 | 93 | 1027.2 |
| 20260510012725 | 54 | 112 | 0.0 | 0.0 | 0.00 | 1.26 | 1.26 | 93 | 1027.2 |
| 20260510011727 | 54 | 112 | 0.0 | 0.0 | 0.00 | 1.26 | 1.26 | 93 | 1027.1 |
| 20260510010723 | 54 | 112 | 0.0 | 0.0 | 0.00 | 1.26 | 1.26 | 93 | 1027.0 |
| 20260510005724 | 55 | 112 | 0.0 | 0.0 | 0.00 | 1.26 | 1.26 | 93 | 1027.0 |
| 20260510004724 | 55 | 112 | 0.0 | 0.0 | 0.00 | 1.26 | 1.26 | 93 | 1026.9 |
| 20260510003724 | 56 | 112 | 0.0 | 0.0 | 0.00 | 1.26 | 1.26 | 93 | 1026.8 |
| 20260510002725 | 56 | 112 | 0.0 | 0.0 | 0.01 | 1.26 | 1.26 | 93 | 1026.7 |
| 20260510001725 | 56 | 292 | 0.0 | 0.0 | 0.02 | 1.26 | 1.26 | 93 | 1026.5 |
| 20260509234826 | 56 | 292 | 1.0 | 2.0 | 0.20 | 1.26 | 1.26 | 93 | 1026.6 |
| 20260509233826 | 56 | 112 | 0.0 | 0.0 | 0.20 | 1.26 | 1.26 | 93 | 1027.0 |
| 20260509232825 | 56 | 112 | 0.0 | 0.0 | 0.20 | 1.26 | 1.25 | 93 | 1026.8 |
| 20260509231825 | 56 | 112 | 0.0 | 1.0 | 0.19 | 1.25 | 1.24 | 93 | 1027.0 |
| 20260509230827 | 56 | 112 | 0.0 | 0.0 | 0.16 | 1.21 | 1.20 | 93 | 1027.2 |
| 20260509225825 | 55 | 336 | 2.0 | 2.0 | 0.02 | 1.07 | 1.07 | 92 | 1027.4 |
| 20260509224828 | 55 | 180 | 0.0 | 0.0 | 0.02 | 1.06 | 1.06 | 92 | 1027.1 |
| 20260509223925 | 55 | 180 | 0.0 | 0.0 | 0.02 | 1.06 | 1.06 | 92 | 1027.3 |
| 20260509222925 | 55 | 180 | 0.0 | 0.0 | 0.02 | 1.06 | 1.06 | 92 | 1027.4 |
| 20260509221924 | 55 | 180 | 0.0 | 0.0 | 0.05 | 1.06 | 1.06 | 92 | 1027.3 |
| 20260509220924 | 55 | 337 | 0.0 | 0.0 | 0.06 | 1.05 | 1.05 | 91 | 1027.4 |
| 20260509215927 | 55 | 337 | 0.0 | 0.0 | 0.06 | 1.05 | 1.05 | 91 | 1027.7 |
| 20260509214925 | 55 | 337 | 0.0 | 0.0 | 0.07 | 1.04 | 1.04 | 91 | 1027.8 |
| 20260509213926 | 55 | 337 | 0.0 | 0.0 | 0.07 | 1.04 | 1.04 | 91 | 1027.7 |
| 20260509212925 | 55 | 337 | 0.0 | 0.0 | 0.10 | 1.04 | 1.04 | 91 | 1027.6 |
| 20260509211927 | 55 | 5 | 1.0 | 4.0 | 0.09 | 1.01 | 1.01 | 91 | 1027.9 |
| 20260509210925 | 56 | 181 | 0.0 | 1.0 | 0.13 | 0.99 | 0.99 | 91 | 1027.8 |
| 20260509205925 | 56 | 180 | 0.0 | 0.0 | 0.23 | 0.99 | 0.98 | 91 | 1027.7 |
| 20260509205024 | 56 | 67 | 0.0 | 1.0 | 0.28 | 0.97 | 0.97 | 91 | 1027.6 |
| 20260509203027 | 57 | 315 | 0.0 | 0.0 | 0.39 | 0.95 | 0.94 | 91 | 1027.7 |
| 20260509202024 | 56 | 315 | 0.0 | 0.0 | 0.42 | 0.92 | 0.92 | 91 | 1027.9 |
| 20260509201025 | 56 | 157 | 0.0 | 1.0 | 0.41 | 0.87 | 0.86 | 90 | 1028.1 |
| 20260509200025 | 57 | 292 | 0.0 | 0.0 | 0.40 | 0.77 | 0.76 | 90 | 1028.0 |
| 20260509195027 | 56 | 77 | 0.0 | 1.0 | 0.37 | 0.68 | 0.67 | 90 | 1028.2 |
| 20260509193126 | 56 | 228 | 0.0 | 2.0 | 0.47 | 0.56 | 0.56 | 89 | 1028.2 |